Change the Weather History Date:

Sunday, July 7, 2013

  Actual Average Record
Temperature  
Mean Temperature 85 °F 84 °F  
Max Temperature 88 °F 89 °F 95 °F (1957)
Min Temperature 82 °F 80 °F 70 °F (1934)
Degree Days  
Heating Degree Days 0 0  
Month to date heating degree days 0 0  
Since 1 June heating degree days 0 0  
Since 1 July heating degree days 0 0  
Cooling Degree Days 20 19  
Month to date cooling degree days 123 133  
Year to date cooling degree days 2310 2112  
Since 1 June cooling degree days 681 682  
Growing Degree Days 35 (Base 50)    
Moisture  
Dew Point 74 °F    
Average Humidity 71    
Maximum Humidity 79    
Minimum Humidity 63    
Precipitation  
Precipitation T in 0.12 in 1.74 in (1988)
Month to date precipitation 3.01 0.85  
Year to date precipitation 26.34 15.59  
Snow  
Snow 0.00 in - - ()
Month to date snowfall 0.0  
Since 1 June snowfall 0.0  
Since 1 July snowfall 0.0  
Snow Depth 0.00 in    
Sea Level Pressure  
Sea Level Pressure 30.04 in    
Wind  
Wind Speed 13 mph (East)    
Max Wind Speed 21 mph    
Max Gust Speed 25 mph    
Visibility 10 miles    
Events      
T = Trace of Precipitation, MM = Missing Value Source: NWS Daily Summary

Daily Weather History Graph

Daily Weather History Graph

Search for Another Location

Airport or City:

Trip Planner

Search our weather history database for the weather conditions in past years. The results will help you decide how hot, cold, wet, or windy it might be!

Date:

Astronomy

Jul. 07, 2013 Rise Set
Actual Time 6:44 AM EDT 8:19 PM EDT
Civil Twilight 6:18 AM EDT 8:45 PM EDT
Nautical Twilight 5:48 AM EDT 9:15 PM EDT
Astronomical Twilight 5:16 AM EDT 9:47 PM EDT
Moon 6:12 AM EDT (7/7) 7:50 PM EDT (7/7)
Length of Visible Light 14h 26m
Length of Day
13h 35m
Waning Crescent, 0% of the Moon is Illuminated
Jul 7
Waning Crescent
Jul 8
New
Jul 15
First Quarter
Jul 22
Full
Jul 29
Last Quarter

Hourly Weather History & Observations

Time (EDT) Temp. Heat Index Dew Point Humidity Pressure Visibility Wind Dir Wind Speed Gust Speed Precip Events Conditions
12:53 AM 82.9 °F 89.4 °F 73.9 °F 74% 30.08 in 10.0 mi East 5.8 mph - N/A   Clear
1:53 AM 82.9 °F 90.2 °F 75.0 °F 77% 30.05 in 10.0 mi East 10.4 mph - N/A   Partly Cloudy
2:53 AM 82.0 °F 88.6 °F 75.0 °F 79% 30.03 in 10.0 mi ESE 10.4 mph - N/A   Scattered Clouds
3:53 AM 82.9 °F 90.2 °F 75.0 °F 77% 30.01 in 10.0 mi ESE 11.5 mph - N/A   Partly Cloudy
4:53 AM 82.0 °F 87.9 °F 73.9 °F 76% 30.01 in 10.0 mi East 11.5 mph - N/A   Clear
5:53 AM 82.0 °F 87.9 °F 73.9 °F 76% 30.01 in 10.0 mi East 8.1 mph - N/A   Partly Cloudy
6:43 AM 82.4 °F 89.5 °F 75.2 °F 79% 30.02 in 10.0 mi East 9.2 mph - N/A   Mostly Cloudy
6:53 AM 82.0 °F 88.6 °F 75.0 °F 79% 30.02 in 9.0 mi East 10.4 mph - N/A   Scattered Clouds
7:53 AM 82.9 °F 90.2 °F 75.0 °F 77% 30.04 in 10.0 mi East 9.2 mph - N/A   Partly Cloudy
8:53 AM 84.0 °F 91.2 °F 73.9 °F 72% 30.05 in 10.0 mi East 12.7 mph 20.7 mph N/A   Partly Cloudy
9:53 AM 84.9 °F 91.4 °F 73.0 °F 67% 30.06 in 10.0 mi East 16.1 mph 23.0 mph N/A   Clear
10:53 AM 86.0 °F 93.8 °F 73.9 °F 67% 30.07 in 10.0 mi East 16.1 mph 23.0 mph N/A   Partly Cloudy
11:53 AM 86.0 °F 93.0 °F 73.0 °F 65% 30.07 in 10.0 mi East 18.4 mph 25.3 mph N/A   Partly Cloudy
12:53 PM 87.1 °F 96.3 °F 75.0 °F 67% 30.06 in 10.0 mi East 16.1 mph 21.9 mph N/A   Clear
1:53 PM 87.1 °F 97.3 °F 75.9 °F 69% 30.05 in 10.0 mi East 17.3 mph 24.2 mph N/A   Partly Cloudy
2:53 PM 88.0 °F 96.5 °F 73.9 °F 63% 30.04 in 10.0 mi East 18.4 mph 24.2 mph N/A   Partly Cloudy
3:53 PM 87.1 °F 96.3 °F 75.0 °F 67% 30.02 in 10.0 mi East 15.0 mph 23.0 mph N/A   Clear
4:53 PM 87.1 °F 95.4 °F 73.9 °F 65% 30.02 in 10.0 mi East 15.0 mph - N/A   Clear
5:53 PM 86.0 °F 95.1 °F 75.0 °F 70% 30.01 in 10.0 mi East 13.8 mph 20.7 mph N/A   Partly Cloudy
6:53 PM 84.9 °F 93.3 °F 75.0 °F 72% 30.01 in 10.0 mi East 15.0 mph - N/A   Clear
7:53 PM 82.0 °F 87.9 °F 73.9 °F 76% 30.01 in 10.0 mi East 6.9 mph - 0.00 in   Partly Cloudy
8:53 PM 82.9 °F 90.2 °F 75.0 °F 77% 30.02 in 10.0 mi East 13.8 mph - N/A   Clear
9:53 PM 82.9 °F 89.4 °F 73.9 °F 74% 30.05 in 10.0 mi East 11.5 mph 19.6 mph N/A   Partly Cloudy
10:53 PM 82.9 °F 88.8 °F 73.0 °F 72% 30.07 in 10.0 mi East 10.4 mph - N/A   Partly Cloudy
11:53 PM 82.9 °F 89.4 °F 73.9 °F 74% 30.08 in 10.0 mi East 9.2 mph - N/A   Scattered Clouds